Miscellaneous Local Product
Issued by NWS Hastings, NE

Home | Current Version | Previous Version | Text Only | Print | Product List | Glossary On
Versions: 1 2 3 4 5 6 7 8 9 10 11 12 13 14 15 16 17 18 19 20 21 22 23 24 25 26 27 28 29 30 31 32 33 34 35 36 37 38 39 40 41 42 43 44 45 46 47 48 49 50
508
AXUS43 KGID 212302
MISGRI

GID CWA HOURLY WEATHER ROUNDUP
NATIONAL WEATHER SERVICE HASTINGS NE
500 PM CST SAT JAN 21 2017

NOTE: "FAIR" INDICATES FEW OR NO CLOUDS BELOW 12,000 FEET WITH NO
SIGNIFICANT WEATHER AND/OR OBSTRUCTIONS TO VISIBILITY.

...SOUTH CENTRAL NEBRASKA...

CITY           SKY/WX    TMP DP  RH WIND       PRES   REMARKS
GRAND ISLAND   CLEAR     49  39  68 CALM      29.46R
HASTINGS       CLEAR     49  39  68 SW3       29.46R
ORD            PTCLDY    50  33  52 CALM      29.45R
YORK           CLEAR     48  41  76 CALM      29.46S
AURORA         CLEAR     49  40  72 CALM      29.46R
LEXINGTON      CLEAR     48  35  60 NW3       29.45R
HOLDREGE       CLEAR     48  35  60 CALM      29.45R
HEBRON         CLEAR     50  39  67 S6        29.47R

...NEBRASKA PANHANDLE...

CITY           SKY/WX    TMP DP  RH WIND       PRES   REMARKS
CHADRON        CLEAR     35  27  72 W6        29.48R WCI  30
ALLIANCE       CLOUDY    40  26  57 NW3       29.45R
SCOTTSBLUFF    CLOUDY    40  30  67 S5        29.45R
SIDNEY         CLEAR     39  25  57 SE5       29.46R

...WESTERN AND NORTH CENTRAL NEBRASKA...

CITY           SKY/WX    TMP DP  RH WIND       PRES   REMARKS
VALENTINE      CLEAR     42  30  62 NW8       29.47R
AINSWORTH      CLEAR     44  32  63 NW8       29.46R
ONEILL         CLEAR     47  32  55 NW7       29.45R
BROKEN BOW     CLEAR     48  37  65 SE3       29.45R
IMPERIAL       CLOUDY    42  31  64 N8        29.45R
NORTH PLATTE   CLEAR     47  32  56 W3        29.46R
MCCOOK         CLEAR     47  28  47 NE3       29.44R

...EASTERN NEBRASKA...

CITY           SKY/WX    TMP DP  RH WIND       PRES   REMARKS
NORFOLK        CLEAR     47  34  60 W5        29.45R
SO SIOUX CITY  CLEAR     41  35  79 N6        29.47R
TEKAMAH        CLEAR     47  40  76 SW6       29.47R
COLUMBUS       CLEAR     48  37  66 SW6       29.48R
ALBION         CLEAR     47  23  38 SW5       29.46R
OMAHA EPPLEY   PTCLDY    51  37  58 W3        29.47R
OFFUTT AFB     CLEAR     49  40  70 W6        29.48R
MILLARD        CLEAR     52  40  61 W3        29.48R
LINCOLN        CLEAR     52  37  56 W5        29.49R
NEBRASKA CITY  CLEAR     49  38  64 CALM      29.49R
BEATRICE       CLEAR     51  40  65 S3        29.47R
FALLS CITY     CLEAR     52  39  61 SW3       29.48R

...NORTHERN KANSAS...

CITY           SKY/WX    TMP DP  RH WIND       PRES   REMARKS
GOODLAND       CLEAR     44  33  65 NE9       29.40R
HILL CITY      CLEAR     50  37  61 SE8       29.43R
NORTON         CLEAR     45  32  61 N6        29.43R
PHILLIPSBURG   CLEAR     52  37  58 E5        29.44R
SMITH CENTER   CLEAR     48  36  61 SE5       29.46R
HAYS           CLEAR     52  38  58 SE10      29.42R
RUSSELL        PTCLDY    49  37  63 E8        29.41R
CONCORDIA      MOCLDY    51  39  63 CALM      29.46R
SALINA         CLOUDY    54  41  61 E7        29.44R
TOPEKA         CLOUDY    54  41  61 CALM      29.47R



USA.gov is the U.S. government's official web portal to all federal, state and local government web resources and services.